QPF
0.06 0.06 0.07 0.08 0.08 0.07 0.07 0.08 0.07 0.05 0.04 0.03 0.02 0.02 0.02 0.02 0.01 0.01 0.02 0.02 0.03 0.04 0.06 0.08 0.08 0.08 0.08 0.08 0.07 0.06 0.06 0.07 0.08 0.08 0.07 0.05 0.04 0.05 0.06 0.06 0.07 0.08 0.08
0.08 0.07 0.08 0.09 0.09 0.09 0.08 0.09 0.09 0.07 0.05 0.04 0.03 0.02 0.02 0.02 0.02 0.01 0.01 0.02 0.03 0.04 0.05 0.07 0.08 0.08 0.08 0.09 0.08 0.08 0.07 0.07 0.08 0.08 0.08 0.07 0.05 0.05 0.05 0.05 0.05 0.05 0.06
0.07 0.08 0.10 0.11 0.10 0.11 0.12 0.12 0.11 0.10 0.07 0.05 0.04 0.03 0.02 0.02 0.02 0.03 0.02 0.02 0.02 0.03 0.04 0.05 0.06 0.07 0.08 0.09 0.09 0.09 0.07 0.06 0.06 0.07 0.08 0.07 0.06 0.05 0.04 0.04 0.05 0.05 0.06
0.08 0.07 0.07 0.09 0.09 0.08 0.10 0.13 0.13 0.10 0.08 0.06 0.04 0.03 0.02 0.01 0.02 0.03 0.03 0.02 0.02 0.01 0.02 0.03 0.04 0.05 0.06 0.07 0.06 0.07 0.07 0.06 0.07 0.07 0.08 0.07 0.05 0.05 0.04 0.04 0.05 0.05 0.06
0.09 0.11 0.10 0.07 0.07 0.07 0.06 0.08 0.11 0.10 0.08 0.06 0.05 0.03 0.02 0.01 0.02 0.01 0.01 0.01 0.01 0.01 0.01 0.02 0.03 0.03 0.05 0.06 0.07 0.07 0.07 0.07 0.07 0.07 0.08 0.07 0.06 0.05 0.05 0.04 0.04 0.05 0.06
0.09 0.10 0.13 0.13 0.09 0.07 0.06 0.06 0.07 0.07 0.07 0.06 0.05 0.04 0.03 0.02 0.02 0.02 0.01 0.01 0.01 0.02 0.02 0.02 0.02 0.02 0.04 0.06 0.07 0.07 0.07 0.07 0.07 0.06 0.06 0.06 0.06 0.06 0.06 0.05 0.04 0.04 0.05
0.11 0.09 0.07 0.10 0.11 0.09 0.07 0.06 0.07 0.07 0.06 0.07 0.08 0.06 0.05 0.04 0.04 0.02 0.02 0.02 0.02 0.02 0.02 0.02 0.02 0.03 0.03 0.04 0.06 0.06 0.07 0.09 0.09 0.09 0.08 0.08 0.08 0.07 0.07 0.06 0.05 0.05 0.05
0.09 0.11 0.09 0.06 0.07 0.08 0.07 0.07 0.08 0.08 0.07 0.08 0.08 0.06 0.04 0.04 0.03 0.02 0.03 0.03 0.03 0.04 0.03 0.02 0.02 0.02 0.02 0.02 0.03 0.04 0.06 0.07 0.09 0.10 0.10 0.09 0.09 0.09 0.09 0.07 0.07 0.07 0.07
0.06 0.06 0.06 0.07 0.08 0.08 0.08 0.08 0.07 0.08 0.08 0.07 0.07 0.06 0.04 0.02 0.02 0.02 0.03 0.04 0.03 0.03 0.03 0.03 0.02 0.02 0.03 0.02 0.02 0.04 0.04 0.04 0.06 0.09 0.08 0.08 0.09 0.08 0.08 0.07 0.07 0.07 0.07
0.06 0.05 0.04 0.04 0.06 0.08 0.08 0.08 0.07 0.07 0.08 0.08 0.07 0.06 0.04 0.03 0.03 0.04 0.05 0.04 0.04 0.03 0.02 0.02 0.02 0.02 0.02 0.02 0.02 0.02 0.03 0.04 0.05 0.06 0.06 0.06 0.06 0.07 0.07 0.08 0.08 0.08 0.08
0.05 0.05 0.04 0.04 0.05 0.06 0.08 0.09 0.09 0.09 0.08 0.07 0.07 0.07 0.05 0.04 0.03 0.02 0.03 0.04 0.04 0.03 0.02 0.02 0.02 0.01 0.01 0.01 0.01 0.02 0.04 0.04 0.04 0.04 0.04 0.05 0.06 0.06 0.06 0.07 0.08 0.08 0.08
0.05 0.07 0.06 0.05 0.05 0.05 0.05 0.08 0.09 0.08 0.08 0.07 0.06 0.06 0.06 0.04 0.02 0.02 0.02 0.03 0.04 0.04 0.04 0.03 0.03 0.02 0.01 0.02 0.02 0.03 0.03 0.03 0.02 0.03 0.04 0.04 0.04 0.04 0.04 0.05 0.08 0.09 0.08
0.03 0.05 0.06 0.05 0.05 0.04 0.04 0.06 0.09 0.10 0.09 0.08 0.07 0.06 0.06 0.04 0.03 0.03 0.03 0.02 0.03 0.03 0.04 0.04 0.03 0.02 0.02 0.03 0.03 0.03 0.02 0.02 0.01 0.02 0.02 0.02 0.02 0.03 0.03 0.04 0.05 0.07 0.09
0.02 0.02 0.04 0.04 0.04 0.04 0.03 0.04 0.05 0.06 0.07 0.08 0.08 0.07 0.06 0.05 0.04 0.03 0.04 0.03 0.03 0.03 0.02 0.03 0.03 0.03 0.03 0.02 0.02 0.02 0.02 0.02 0.01 0.01 0.01 0.02 0.02 0.02 0.02 0.03 0.03 0.05 0.07
0.02 0.02 0.03 0.03 0.03 0.03 0.04 0.04 0.04 0.04 0.05 0.05 0.04 0.04 0.04 0.04 0.04 0.03 0.03 0.03 0.03 0.03 0.02 0.02 0.02 0.02 0.02 0.02 0.02 0.02 0.01 0.02 0.02 0.02 0.02 0.02 0.02 0.02 0.02 0.02 0.03 0.03 0.05
0.02 0.02 0.02 0.02 0.03 0.04 0.04 0.04 0.05 0.04 0.04 0.03 0.03 0.03 0.03 0.03 0.03 0.03 0.03 0.03 0.03 0.04 0.03 0.03 0.02 0.01 0.01 0.01 0.01 0.01 0.01 0.02 0.02 0.02 0.02 0.02 0.02 0.02 0.02 0.02 0.02 0.02 0.03
0.03 0.03 0.03 0.03 0.04 0.04 0.05 0.05 0.05 0.05 0.04 0.03 0.03 0.02 0.03 0.04 0.03 0.03 0.03 0.03 0.03 0.03 0.03 0.03 0.03 0.02 0.01 0.01 0.01 0.01 0.01 0.01 0.02 0.02 0.02 0.02 0.02 0.02 0.02 0.02 0.02 0.02 0.03
0.05 0.03 0.03 0.04 0.04 0.03 0.03 0.04 0.05 0.05 0.05 0.05 0.04 0.03 0.03 0.04 0.03 0.02 0.02 0.03 0.03 0.03 0.02 0.02 0.02 0.02 0.01 0.01 0.01 0.01 0.01 0.01 0.01 0.01 0.01 0.01 0.01 0.01 0.01 0.02 0.02 0.03 0.03
0.04 0.03 0.03 0.04 0.03 0.02 0.02 0.03 0.04 0.05 0.04 0.05 0.05 0.04 0.03 0.02 0.01 0.01 0.02 0.02 0.02 0.02 0.02 0.01 0.01 0.01 0.02 0.01 0.01 0.01 0.01 0.01 0.01 0.01 0.01 0.01 0.02 0.02 0.02 0.02 0.02 0.03 0.03
0.04 0.04 0.03 0.02 0.02 0.02 0.02 0.03 0.04 0.04 0.04 0.05 0.05 0.04 0.03 0.02 0.01 0.01 0.02 0.01 0.01 0.02 0.02 0.01 0.01 0.01 0.01 0.01 0.02 0.01 0.01 0.01 0.01 0.01 0.01 0.02 0.02 0.03 0.03 0.03 0.02 0.03 0.03
0.05 0.08 0.04 0.03 0.03 0.03 0.03 0.03 0.04 0.05 0.05 0.05 0.05 0.05 0.05 0.03 0.02 0.02 0.02 0.01 0.01 0.01 0.01 0.01 0.01 0.01 0.01 0.01 0.01 0.02 0.01 0.01 0.02 0.02 0.01 0.02 0.02 0.03 0.03 0.04 0.04 0.04 0.04
0.06 0.08 0.06 0.05 0.04 0.04 0.06 0.07 0.08 0.09 0.10 0.10 0.08 0.06 0.06 0.05 0.04 0.04 0.03 0.02 0.01 0.01 0.01 0.01 0.01 0.01 0.01 0.01 0.02 0.02 0.02 0.02 0.02 0.01 0.01 0.02 0.02 0.03 0.03 0.04 0.05 0.05 0.05
0.07 0.08 0.06 0.04 0.03 0.04 0.07 0.09 0.11 0.13 0.14 0.14 0.13 0.11 0.09 0.06 0.05 0.04 0.03 0.03 0.03 0.03 0.02 0.01 0.01 0.01 0.01 0.01 0.02 0.02 0.02 0.02 0.02 0.01 0.01 0.01 0.02 0.03 0.03 0.04 0.05 0.05 0.05
0.05 0.06 0.05 0.03 0.02 0.02 0.03 0.04 0.07 0.08 0.08 0.08 0.09 0.10 0.10 0.08 0.06 0.05 0.04 0.03 0.02 0.02 0.02 0.01 0.01 0.01 0.01 0.01 0.02 0.02 0.02 0.02 0.03 0.03 0.02 0.02 0.02 0.02 0.03 0.03 0.04 0.03 0.03
0.04 0.05 0.05 0.04 0.02 0.02 0.03 0.04 0.05 0.05 0.06 0.06 0.06 0.06 0.05 0.05 0.05 0.04 0.04 0.03 0.02 0.02 0.01 0.01 0.01 0.01 0.02 0.03 0.02 0.02 0.02 0.02 0.02 0.04 0.03 0.03 0.02 0.02 0.03 0.04 0.04 0.03 0.03
0.02 0.03 0.03 0.03 0.03 0.04 0.05 0.04 0.04 0.04 0.05 0.06 0.05 0.06 0.06 0.06 0.04 0.03 0.02 0.02 0.02 0.02 0.02 0.02 0.01 0.01 0.01 0.02 0.02 0.02 0.01 0.02 0.02 0.03 0.03 0.03 0.02 0.02 0.04 0.04 0.04 0.03 0.02
MSLP
1010.90 1010.86 1010.82 1010.79 1010.85 1011.03 1011.34 1011.78 1012.33 1012.94 1013.56 1014.13 1014.62 1015.02 1015.34 1015.58 1015.78 1015.96 1016.15 1016.36 1016.58 1016.81 1017.05 1017.28 1017.50 1017.72 1017.94 1018.16 1018.40 1018.65 1018.91 1019.17 1019.41 1019.63 1019.84 1020.02 1020.19 1020.34 1020.48 1020.61 1020.73 1020.82 1020.89
1010.80 1010.73 1010.64 1010.60 1010.64 1010.80 1011.10 1011.55 1012.11 1012.75 1013.39 1014.01 1014.54 1014.98 1015.32 1015.56 1015.74 1015.89 1016.03 1016.17 1016.35 1016.55 1016.77 1017.01 1017.26 1017.51 1017.77 1018.03 1018.28 1018.52 1018.76 1018.98 1019.19 1019.38 1019.56 1019.72 1019.87 1020.02 1020.15 1020.28 1020.38 1020.45 1020.50
1010.67 1010.58 1010.49 1010.45 1010.50 1010.66 1010.97 1011.41 1011.98 1012.62 1013.29 1013.93 1014.50 1014.97 1015.33 1015.58 1015.75 1015.86 1015.94 1016.03 1016.14 1016.30 1016.49 1016.72 1016.98 1017.26 1017.54 1017.82 1018.08 1018.32 1018.53 1018.72 1018.88 1019.04 1019.18 1019.31 1019.45 1019.58 1019.70 1019.81 1019.89 1019.94 1019.96
1010.46 1010.40 1010.35 1010.34 1010.41 1010.59 1010.90 1011.34 1011.89 1012.52 1013.19 1013.84 1014.44 1014.93 1015.32 1015.58 1015.75 1015.83 1015.87 1015.90 1015.96 1016.06 1016.21 1016.42 1016.68 1016.96 1017.25 1017.54 1017.80 1018.02 1018.21 1018.36 1018.49 1018.60 1018.71 1018.82 1018.94 1019.05 1019.15 1019.24 1019.29 1019.31 1019.29
1010.19 1010.17 1010.18 1010.23 1010.35 1010.55 1010.86 1011.28 1011.80 1012.40 1013.05 1013.70 1014.30 1014.83 1015.24 1015.53 1015.70 1015.78 1015.79 1015.78 1015.79 1015.83 1015.94 1016.12 1016.36 1016.63 1016.92 1017.20 1017.45 1017.66 1017.82 1017.94 1018.03 1018.11 1018.20 1018.29 1018.38 1018.48 1018.57 1018.63 1018.65 1018.64 1018.58
1009.84 1009.90 1009.98 1010.10 1010.26 1010.49 1010.79 1011.18 1011.66 1012.21 1012.83 1013.46 1014.07 1014.61 1015.06 1015.39 1015.60 1015.69 1015.70 1015.67 1015.64 1015.64 1015.71 1015.85 1016.06 1016.31 1016.58 1016.84 1017.07 1017.25 1017.38 1017.47 1017.54 1017.60 1017.67 1017.76 1017.85 1017.94 1018.02 1018.06 1018.06 1018.01 1017.92
1009.46 1009.59 1009.74 1009.93 1010.14 1010.38 1010.66 1011.01 1011.43 1011.93 1012.50 1013.11 1013.72 1014.29 1014.79 1015.17 1015.42 1015.55 1015.59 1015.56 1015.52 1015.50 1015.54 1015.65 1015.82 1016.04 1016.27 1016.50 1016.70 1016.85 1016.96 1017.03 1017.08 1017.13 1017.20 1017.29 1017.39 1017.49 1017.57 1017.61 1017.60 1017.52 1017.39
1009.07 1009.26 1009.49 1009.72 1009.96 1010.20 1010.46 1010.75 1011.11 1011.56 1012.08 1012.67 1013.29 1013.89 1014.44 1014.89 1015.21 1015.41 1015.49 1015.49 1015.46 1015.44 1015.46 1015.54 1015.68 1015.86 1016.06 1016.25 1016.41 1016.52 1016.60 1016.65 1016.69 1016.74 1016.83 1016.93 1017.06 1017.18 1017.28 1017.33 1017.31 1017.22 1017.07
1008.71 1008.95 1009.22 1009.48 1009.73 1009.95 1010.17 1010.42 1010.72 1011.11 1011.60 1012.17 1012.81 1013.45 1014.06 1014.59 1014.99 1015.26 1015.41 1015.47 1015.47 1015.47 1015.49 1015.56 1015.67 1015.81 1015.97 1016.12 1016.23 1016.31 1016.35 1016.38 1016.42 1016.48 1016.58 1016.71 1016.87 1017.03 1017.15 1017.22 1017.21 1017.12 1016.97
1008.38 1008.66 1008.94 1009.21 1009.45 1009.65 1009.83 1010.02 1010.28 1010.63 1011.09 1011.67 1012.32 1013.02 1013.69 1014.29 1014.79 1015.14 1015.37 1015.49 1015.55 1015.59 1015.62 1015.69 1015.79 1015.91 1016.03 1016.13 1016.20 1016.24 1016.25 1016.25 1016.28 1016.35 1016.47 1016.63 1016.82 1017.01 1017.17 1017.26 1017.27 1017.19 1017.05
1008.08 1008.37 1008.66 1008.91 1009.12 1009.29 1009.43 1009.59 1009.81 1010.14 1010.60 1011.18 1011.87 1012.61 1013.34 1014.02 1014.59 1015.03 1015.34 1015.54 1015.67 1015.75 1015.83 1015.92 1016.02 1016.12 1016.21 1016.28 1016.31 1016.30 1016.28 1016.26 1016.28 1016.35 1016.48 1016.66 1016.88 1017.10 1017.28 1017.39 1017.42 1017.36 1017.22
1007.77 1008.06 1008.34 1008.57 1008.75 1008.89 1009.00 1009.13 1009.34 1009.66 1010.13 1010.73 1011.44 1012.22 1013.01 1013.75 1014.39 1014.91 1015.29 1015.57 1015.77 1015.92 1016.05 1016.18 1016.30 1016.41 1016.49 1016.53 1016.53 1016.50 1016.44 1016.40 1016.40 1016.46 1016.59 1016.78 1017.01 1017.23 1017.43 1017.56 1017.59 1017.54 1017.40
1007.40 1007.70 1007.97 1008.18 1008.34 1008.45 1008.54 1008.67 1008.88 1009.21 1009.69 1010.31 1011.05 1011.85 1012.68 1013.45 1014.14 1014.72 1015.18 1015.53 1015.81 1016.03 1016.23 1016.41 1016.58 1016.72 1016.81 1016.85 1016.83 1016.78 1016.70 1016.64 1016.61 1016.66 1016.78 1016.96 1017.17 1017.40 1017.59 1017.71 1017.74 1017.67 1017.53
1006.96 1007.27 1007.54 1007.75 1007.89 1007.99 1008.08 1008.21 1008.43 1008.77 1009.27 1009.90 1010.65 1011.47 1012.31 1013.10 1013.82 1014.44 1014.95 1015.37 1015.73 1016.04 1016.32 1016.58 1016.80 1016.99 1017.11 1017.17 1017.17 1017.11 1017.02 1016.94 1016.91 1016.93 1017.03 1017.19 1017.38 1017.57 1017.73 1017.82 1017.83 1017.74 1017.58
1006.43 1006.78 1007.06 1007.28 1007.43 1007.53 1007.64 1007.78 1008.01 1008.37 1008.88 1009.52 1010.26 1011.07 1011.89 1012.68 1013.41 1014.05 1014.60 1015.08 1015.51 1015.91 1016.28 1016.62 1016.93 1017.18 1017.37 1017.47 1017.49 1017.45 1017.38 1017.30 1017.26 1017.27 1017.34 1017.47 1017.62 1017.77 1017.89 1017.93 1017.89 1017.77 1017.57
1005.84 1006.24 1006.57 1006.81 1006.98 1007.10 1007.23 1007.40 1007.65 1008.02 1008.52 1009.15 1009.87 1010.65 1011.44 1012.20 1012.91 1013.56 1014.14 1014.67 1015.16 1015.64 1016.10 1016.54 1016.94 1017.28 1017.54 1017.70 1017.78 1017.78 1017.74 1017.68 1017.65 1017.65 1017.71 1017.80 1017.91 1018.02 1018.08 1018.07 1017.97 1017.80 1017.56
1005.25 1005.71 1006.09 1006.37 1006.58 1006.74 1006.89 1007.08 1007.35 1007.72 1008.21 1008.81 1009.50 1010.23 1010.97 1011.69 1012.38 1013.01 1013.60 1014.17 1014.73 1015.28 1015.82 1016.35 1016.85 1017.27 1017.62 1017.86 1018.01 1018.07 1018.08 1018.06 1018.05 1018.07 1018.12 1018.19 1018.27 1018.33 1018.33 1018.27 1018.12 1017.89 1017.61
1004.69 1005.23 1005.67 1006.00 1006.25 1006.45 1006.63 1006.84 1007.12 1007.49 1007.96 1008.53 1009.17 1009.84 1010.53 1011.21 1011.85 1012.47 1013.07 1013.66 1014.26 1014.87 1015.49 1016.10 1016.67 1017.18 1017.61 1017.93 1018.16 1018.30 1018.37 1018.41 1018.45 1018.49 1018.55 1018.62 1018.68 1018.70 1018.67 1018.56 1018.36 1018.09 1017.77
1004.22 1004.83 1005.32 1005.71 1006.00 1006.23 1006.43 1006.66 1006.95 1007.31 1007.76 1008.30 1008.89 1009.52 1010.16 1010.79 1011.40 1012.00 1012.59 1013.20 1013.83 1014.48 1015.15 1015.81 1016.45 1017.03 1017.53 1017.93 1018.24 1018.45 1018.60 1018.71 1018.79 1018.88 1018.97 1019.05 1019.10 1019.11 1019.06 1018.92 1018.70 1018.40 1018.05
1003.84 1004.50 1005.05 1005.47 1005.79 1006.05 1006.28 1006.52 1006.81 1007.17 1007.61 1008.12 1008.68 1009.27 1009.87 1010.47 1011.06 1011.64 1012.24 1012.85 1013.49 1014.16 1014.86 1015.56 1016.24 1016.86 1017.41 1017.87 1018.24 1018.53 1018.75 1018.92 1019.07 1019.21 1019.33 1019.44 1019.51 1019.53 1019.47 1019.33 1019.11 1018.80 1018.45
1003.55 1004.25 1004.81 1005.26 1005.60 1005.87 1006.11 1006.37 1006.67 1007.03 1007.47 1007.97 1008.53 1009.11 1009.70 1010.29 1010.87 1011.44 1012.03 1012.65 1013.29 1013.97 1014.67 1015.37 1016.06 1016.71 1017.29 1017.79 1018.20 1018.54 1018.82 1019.06 1019.26 1019.45 1019.62 1019.76 1019.86 1019.90 1019.86 1019.74 1019.53 1019.25 1018.90
1003.34 1004.03 1004.59 1005.04 1005.38 1005.66 1005.91 1006.18 1006.49 1006.88 1007.33 1007.86 1008.43 1009.02 1009.63 1010.23 1010.82 1011.41 1012.00 1012.61 1013.25 1013.91 1014.60 1015.29 1015.97 1016.61 1017.19 1017.70 1018.15 1018.52 1018.85 1019.13 1019.38 1019.61 1019.82 1020.00 1020.13 1020.20 1020.19 1020.10 1019.93 1019.67 1019.36
1003.17 1003.84 1004.38 1004.80 1005.13 1005.40 1005.66 1005.95 1006.29 1006.70 1007.20 1007.76 1008.37 1009.02 1009.66 1010.30 1010.93 1011.54 1012.14 1012.75 1013.38 1014.02 1014.68 1015.34 1015.98 1016.60 1017.17 1017.68 1018.12 1018.52 1018.86 1019.17 1019.45 1019.72 1019.95 1020.16 1020.32 1020.42 1020.45 1020.40 1020.26 1020.05 1019.78
1003.06 1003.67 1004.17 1004.56 1004.86 1005.13 1005.40 1005.70 1006.07 1006.54 1007.09 1007.71 1008.39 1009.10 1009.81 1010.51 1011.18 1011.82 1012.44 1013.05 1013.67 1014.28 1014.91 1015.53 1016.13 1016.71 1017.25 1017.74 1018.18 1018.57 1018.93 1019.25 1019.54 1019.81 1020.06 1020.29 1020.47 1020.59 1020.65 1020.63 1020.54 1020.37 1020.13
1003.02 1003.57 1004.01 1004.36 1004.64 1004.90 1005.18 1005.51 1005.93 1006.44 1007.06 1007.76 1008.51 1009.30 1010.08 1010.83 1011.56 1012.23 1012.88 1013.49 1014.10 1014.69 1015.28 1015.86 1016.42 1016.97 1017.48 1017.94 1018.37 1018.75 1019.09 1019.40 1019.69 1019.96 1020.21 1020.43 1020.62 1020.75 1020.83 1020.83 1020.76 1020.63 1020.42
1003.11 1003.59 1003.98 1004.29 1004.55 1004.81 1005.10 1005.46 1005.92 1006.50 1007.18 1007.95 1008.78 1009.63 1010.48 1011.29 1012.06 1012.77 1013.43 1014.04 1014.63 1015.21 1015.76 1016.31 1016.85 1017.36 1017.84 1018.28 1018.69 1019.05 1019.38 1019.68 1019.95 1020.20 1020.43 1020.64 1020.81 1020.94 1021.01 1021.03 1020.97 1020.85 1020.66
Thickness
5711 5710 5709 5708 5708 5707 5706 5704 5704 5703 5702 5701 5701 5700 5699 5699 5699 5699 5699 5700 5700 5701 5701 5702 5702 5702 5702 5702 5702 5701 5700 5699 5699 5699 5699 5699 5700 5700 5700 5700 5699 5699 5698
5706 5705 5703 5703 5703 5703 5702 5700 5699 5698 5697 5696 5696 5696 5696 5696 5696 5696 5696 5696 5697 5698 5698 5698 5698 5699 5699 5699 5699 5698 5698 5697 5697 5697 5697 5697 5697 5697 5697 5697 5697 5697 5696
5702 5700 5699 5699 5698 5697 5697 5696 5694 5693 5692 5691 5691 5691 5691 5692 5692 5692 5692 5693 5693 5694 5694 5694 5694 5695 5696 5696 5696 5696 5696 5695 5695 5695 5695 5695 5696 5695 5695 5695 5695 5695 5695
5697 5695 5695 5694 5693 5692 5691 5690 5689 5687 5686 5685 5686 5686 5687 5687 5688 5688 5689 5689 5690 5690 5690 5690 5691 5691 5692 5693 5693 5693 5693 5693 5693 5693 5692 5693 5693 5693 5693 5693 5693 5693 5692
5691 5690 5690 5689 5688 5687 5686 5685 5684 5682 5680 5680 5680 5681 5682 5683 5683 5684 5684 5685 5685 5686 5686 5686 5686 5687 5687 5688 5689 5689 5690 5690 5690 5690 5690 5690 5690 5690 5690 5690 5690 5690 5690
5685 5685 5684 5684 5683 5682 5681 5680 5678 5677 5676 5675 5676 5676 5676 5677 5678 5678 5679 5680 5681 5681 5681 5681 5681 5682 5683 5684 5684 5685 5686 5686 5687 5687 5687 5687 5687 5687 5687 5687 5688 5688 5687
5681 5680 5679 5679 5678 5677 5676 5675 5674 5671 5670 5669 5667 5667 5669 5671 5672 5673 5674 5675 5675 5676 5676 5675 5676 5677 5678 5679 5680 5681 5682 5683 5683 5684 5684 5684 5684 5684 5684 5684 5685 5685 5684
5676 5676 5674 5674 5673 5672 5671 5670 5668 5666 5665 5664 5661 5658 5659 5661 5666 5669 5669 5669 5670 5670 5670 5671 5671 5672 5673 5674 5675 5676 5678 5679 5679 5679 5680 5680 5680 5680 5680 5681 5681 5681 5681
5670 5670 5669 5669 5668 5667 5666 5665 5664 5662 5660 5658 5657 5654 5652 5654 5657 5661 5663 5664 5664 5663 5664 5666 5666 5667 5668 5668 5670 5671 5672 5674 5674 5675 5675 5675 5675 5675 5676 5677 5677 5677 5677
5664 5664 5663 5663 5663 5662 5661 5660 5660 5658 5657 5654 5653 5652 5652 5652 5651 5652 5655 5657 5657 5657 5658 5660 5661 5661 5662 5663 5664 5665 5667 5667 5668 5669 5669 5670 5670 5670 5671 5672 5672 5673 5673
5658 5659 5658 5658 5658 5657 5656 5656 5655 5655 5653 5651 5649 5648 5647 5645 5646 5645 5647 5649 5650 5652 5653 5654 5654 5655 5656 5657 5658 5659 5660 5661 5662 5662 5663 5664 5664 5665 5666 5666 5667 5668 5668
5652 5653 5653 5653 5653 5653 5653 5652 5652 5652 5651 5648 5646 5645 5644 5642 5641 5641 5641 5642 5643 5645 5646 5648 5648 5649 5650 5651 5652 5653 5654 5655 5655 5656 5657 5657 5658 5659 5660 5660 5661 5662 5663
5647 5648 5649 5649 5649 5649 5649 5649 5648 5648 5647 5645 5644 5643 5642 5641 5640 5638 5637 5636 5636 5637 5638 5641 5642 5643 5643 5644 5645 5646 5647 5648 5648 5650 5650 5651 5652 5652 5653 5654 5655 5656 5657
5643 5644 5644 5644 5645 5645 5645 5645 5644 5644 5643 5642 5641 5640 5638 5637 5636 5635 5634 5632 5630 5630 5630 5633 5635 5636 5637 5638 5639 5639 5640 5641 5641 5642 5643 5644 5645 5646 5646 5647 5648 5649 5650
5640 5641 5640 5641 5641 5642 5642 5641 5640 5640 5640 5639 5637 5636 5634 5634 5633 5632 5630 5629 5626 5625 5626 5627 5628 5630 5631 5631 5632 5633 5633 5633 5634 5635 5636 5637 5638 5639 5639 5640 5640 5641 5642
5637 5637 5637 5638 5638 5639 5638 5638 5637 5637 5636 5635 5633 5632 5631 5630 5629 5628 5626 5624 5623 5621 5620 5622 5622 5624 5624 5625 5626 5626 5626 5627 5628 5628 5629 5630 5631 5632 5632 5632 5633 5634 5635
5634 5634 5634 5635 5635 5635 5635 5634 5634 5633 5633 5632 5630 5629 5628 5626 5625 5623 5621 5619 5618 5616 5616 5617 5617 5618 5618 5619 5619 5620 5620 5621 5621 5622 5623 5623 5623 5624 5624 5624 5625 5626 5627
5632 5631 5632 5632 5632 5632 5631 5630 5630 5630 5629 5628 5627 5625 5624 5623 5621 5619 5617 5616 5615 5613 5612 5612 5612 5612 5613 5613 5613 5613 5614 5615 5615 5616 5616 5616 5616 5616 5616 5617 5617 5618 5619
5629 5629 5629 5629 5629 5628 5628 5627 5627 5627 5626 5625 5624 5623 5622 5620 5618 5617 5615 5613 5612 5611 5608 5608 5608 5607 5607 5607 5607 5607 5608 5608 5608 5609 5609 5609 5608 5609 5609 5609 5610 5610 5611
5626 5626 5626 5626 5625 5625 5625 5624 5624 5623 5623 5622 5621 5621 5620 5619 5617 5615 5612 5610 5608 5606 5604 5603 5603 5602 5602 5602 5601 5601 5602 5602 5601 5602 5602 5602 5602 5601 5602 5602 5602 5603 5603
5624 5624 5623 5623 5622 5622 5622 5622 5621 5621 5620 5619 5618 5618 5618 5617 5616 5613 5612 5609 5606 5603 5601 5600 5600 5598 5598 5597 5597 5596 5595 5595 5595 5594 5595 5596 5595 5595 5594 5594 5594 5594 5595
5620 5619 5619 5620 5619 5620 5619 5619 5618 5618 5618 5616 5616 5615 5615 5614 5613 5612 5610 5608 5606 5603 5600 5598 5597 5595 5595 5594 5593 5591 5590 5589 5591 5590 5589 5590 5589 5588 5588 5587 5588 5587 5588
5616 5615 5615 5615 5615 5615 5615 5615 5615 5614 5613 5613 5612 5612 5612 5612 5610 5608 5607 5605 5603 5601 5600 5598 5596 5595 5593 5592 5590 5587 5585 5585 5585 5585 5582 5583 5582 5582 5582 5581 5581 5580 5580
5612 5612 5612 5611 5611 5611 5611 5611 5611 5610 5609 5609 5609 5608 5607 5606 5606 5604 5603 5601 5599 5598 5597 5596 5595 5593 5591 5589 5586 5584 5582 5580 5579 5577 5576 5575 5576 5575 5575 5574 5573 5573 5573
5607 5607 5607 5607 5607 5607 5607 5607 5607 5605 5604 5604 5604 5604 5603 5602 5601 5600 5598 5597 5595 5594 5594 5592 5591 5589 5587 5585 5582 5579 5576 5575 5575 5574 5570 5569 5570 5568 5568 5567 5566 5565 5565
5602 5602 5602 5602 5601 5602 5603 5603 5602 5601 5600 5600 5600 5599 5598 5597 5596 5595 5594 5593 5591 5591 5590 5588 5586 5585 5583 5581 5578 5576 5574 5571 5569 5568 5566 5563 5563 5561 5562 5562 5559 5558 5557